Theta_e
322 319 319 323 322 321 322 322 322 323 324 324 324 324 322 325 340 339 337 335 334 331 328 327 330 337 339 343 346 348 341 337 331 329 346 349 349 345 342 343 336 340 347 347
322 321 322 323 322 322 322 322 321 324 322 321 323 322 321 329 337 337 335 333 330 323 322 323 323 331 336 339 341 346 347 345 335 342 350 350 351 351 345 342 347 345 346 347
320 322 323 322 321 323 323 323 323 323 322 319 320 319 320 334 336 335 332 331 327 323 321 325 327 330 333 335 338 340 343 346 348 350 350 350 350 350 351 350 351 350 350 346
323 322 322 322 322 323 322 321 322 323 321 319 319 317 320 333 334 332 330 328 326 325 325 327 328 327 329 331 333 336 339 342 343 345 347 348 351 349 346 346 345 347 348 348
321 323 323 323 323 324 324 321 320 321 318 318 318 317 317 332 334 331 329 328 327 324 325 326 325 323 323 326 327 329 332 338 341 341 343 342 348 346 342 341 344 344 344 341
322 324 324 323 322 322 321 322 321 320 316 318 319 318 319 329 333 330 328 327 327 326 325 325 324 325 323 322 322 322 323 326 329 333 337 341 341 342 339 336 338 339 340 336
324 322 323 323 324 322 321 322 320 319 320 321 322 323 330 330 330 328 326 326 326 326 326 324 323 322 324 324 323 323 322 322 322 322 321 324 326 333 334 328 327 332 332 332
324 324 324 324 322 322 322 321 318 321 323 324 322 333 330 328 328 327 326 326 324 324 324 322 322 321 319 319 321 322 322 321 320 320 319 316 316 316 316 314 315 321 326 324
323 325 323 324 322 321 322 319 321 322 323 321 320 330 328 327 328 327 326 325 324 324 323 323 321 320 319 318 318 318 318 318 315 314 313 313 312 313 312 312 312 310 311 316
323 321 322 323 322 321 320 320 320 319 324 327 323 328 330 328 325 328 327 326 325 324 323 322 320 320 319 319 318 316 315 314 313 311 309 308 308 308 308 308 308 309 312 311
321 322 322 321 322 322 319 320 322 319 322 322 323 322 328 326 324 322 323 327 326 324 323 322 320 321 320 319 318 317 315 311 310 310 311 312 312 311 311 308 306 306 306 308
323 323 325 324 322 322 321 322 321 319 321 322 324 323 323 322 323 322 321 321 326 326 324 323 322 321 321 320 318 317 313 312 312 312 312 312 312 312 311 310 308 307 306 308
321 323 324 324 323 324 325 325 324 321 320 322 322 322 322 324 322 321 320 320 324 326 325 323 323 322 322 321 319 316 313 314 313 313 312 313 312 312 310 309 308 307 307 308
320 320 322 322 322 322 323 323 323 323 322 321 322 321 320 322 319 319 319 319 319 323 325 324 323 323 323 322 320 315 314 314 313 314 314 314 313 312 312 311 310 310 310 309
319 320 323 322 323 322 322 321 320 319 319 320 318 318 317 319 319 320 319 320 320 322 322 325 324 323 322 321 320 317 317 316 315 315 315 314 314 313 312 312 311 310 311 312
321 321 323 324 322 322 322 322 322 319 318 317 316 316 315 318 320 319 319 320 323 323 323 325 324 324 322 320 320 319 318 318 315 315 315 315 314 313 313 312 312 311 311 312
324 322 323 323 323 322 322 321 320 319 318 316 315 314 317 317 319 321 324 323 323 321 320 322 322 320 319 318 319 320 319 316 316 316 315 315 315 314 312 312 312 311 311 312
322 322 322 321 322 323 321 321 320 320 318 317 317 317 317 319 321 321 322 323 322 322 322 324 322 322 322 321 320 319 318 317 316 315 315 314 314 313 312 312 312 312 312 310
321 321 320 319 320 321 321 321 320 319 321 320 319 319 318 317 319 320 319 320 320 319 320 320 321 320 320 319 318 317 317 316 315 314 313 312 312 312 311 311 311 311 310 308
320 319 320 321 321 322 322 320 319 318 320 320 319 318 318 318 316 316 319 319 319 319 318 317 316 316 316 317 316 315 314 314 313 313 312 312 311 311 310 310 310 309 307 308
318 319 318 318 317 319 321 321 318 320 321 319 318 317 316 316 317 316 318 318 318 319 317 315 314 314 313 313 313 312 313 312 311 311 311 311 310 309 309 309 309 308 308 308
321 320 319 320 319 321 319 320 322 320 318 317 316 314 314 314 315 315 318 318 316 315 314 313 313 313 312 311 311 311 309 308 308 307 308 307 307 306 308 308 308 308 307 307
319 321 320 319 320 320 318 317 318 317 317 314 313 313 313 314 316 316 316 316 315 313 313 311 311 311 310 309 308 308 307 307 307 307 306 304 304 306 306 307 306 306 306 306
319 318 318 317 320 316 317 317 314 314 313 312 312 313 313 314 315 315 315 313 311 310 310 310 309 309 308 307 306 306 306 305 304 304 304 305 305 306 306 306 305 305 306 306
316 317 316 316 317 315 315 314 313 313 312 311 312 313 314 314 314 314 311 309 310 310 309 308 308 307 307 307 305 304 302 303 303 303 303 303 303 304 305 305 305 304 305 305
315 316 314 315 314 314 314 313 312 312 312 313 313 312 313 313 313 311 310 309 308 308 307 307 307 305 304 304 304 305 305 305 304 303 302 301 301 302 303 303 303 303 303 303
Wind_Speed
14 3 5 6 3 6 5 6 7 3 6 5 4 4 11 1 27 25 27 27 21 20 18 19 22 27 19 17 16 3 7 5 18 19 29 30 25 29 41 40 32 35 32 29
0 1 3 4 3 2 5 6 8 4 10 7 5 7 9 10 18 25 27 25 20 16 17 17 19 23 27 23 15 12 9 2 7 20 22 21 21 22 27 30 30 33 37 30
7 5 5 3 5 6 4 7 7 4 7 8 5 8 8 13 28 30 30 23 21 20 18 18 18 22 23 23 23 17 12 9 11 23 25 21 19 21 24 25 32 37 37 39
2 7 5 3 3 4 4 9 10 10 8 2 6 6 4 15 16 22 26 24 20 17 17 14 14 18 21 23 22 20 17 13 12 11 18 21 19 21 18 17 22 31 30 32
7 2 3 1 7 8 3 8 7 5 7 5 11 2 6 18 13 14 22 23 17 15 12 11 11 14 16 19 20 19 17 14 11 16 18 20 17 13 15 18 24 21 14 15
7 2 3 2 5 3 5 4 7 6 3 2 20 8 5 6 16 12 21 22 16 11 11 8 7 4 9 13 18 19 20 17 16 14 11 13 15 20 18 18 15 10 11 5
5 9 4 11 1 6 4 5 4 5 3 7 10 3 4 11 16 20 18 21 16 10 9 4 2 6 8 10 12 13 14 17 17 18 16 13 13 13 14 18 18 12 9 9
3 4 3 2 4 2 4 2 4 3 3 6 9 4 3 15 25 26 25 20 14 11 9 6 4 7 9 9 7 8 11 12 14 15 14 13 13 13 13 14 16 15 14 12
4 2 1 5 6 5 3 3 3 0 4 2 3 4 5 13 13 20 23 22 18 17 15 13 6 3 2 4 5 8 9 10 9 11 12 13 14 15 16 15 14 14 13 12
4 4 3 2 4 6 6 2 4 3 2 3 3 1 5 8 7 14 16 22 21 18 18 14 6 4 3 3 5 3 3 4 6 8 12 17 18 19 17 17 16 16 13 12
3 2 6 8 2 3 4 1 2 2 2 2 1 5 6 8 6 7 6 26 25 20 18 14 9 8 5 3 3 4 3 1 7 11 13 16 18 21 22 21 19 17 15 13
2 3 2 6 13 5 6 3 3 4 5 2 2 5 6 9 12 10 12 9 23 21 19 17 14 12 5 2 4 2 4 2 1 4 8 12 14 18 21 21 19 20 19 16
3 3 2 7 4 5 3 4 4 2 3 3 2 5 4 7 7 8 13 5 9 19 23 22 20 16 12 8 6 3 6 3 3 3 7 11 14 19 22 23 25 25 22 20
6 2 3 4 6 4 5 9 6 6 3 5 7 8 6 4 2 9 15 3 2 10 21 25 23 21 20 12 7 5 5 4 2 7 11 13 16 18 20 21 23 25 24 21
5 3 3 6 8 11 11 11 12 8 7 5 6 7 7 4 7 7 6 9 11 14 12 15 25 22 18 10 11 10 4 4 7 10 11 13 15 15 16 21 24 27 26 25
5 4 4 4 8 11 15 15 15 5 6 6 8 7 7 11 16 16 15 15 17 16 12 7 13 18 19 13 13 10 6 13 10 12 12 14 15 15 14 18 22 23 24 22
6 3 1 4 6 10 9 7 6 2 3 4 4 6 7 9 19 23 25 21 15 11 7 5 4 3 9 12 11 12 13 6 7 8 12 18 18 16 11 15 19 17 21 23
3 0 1 3 3 4 8 8 4 4 6 7 6 12 14 17 24 22 19 16 12 11 8 5 5 6 3 4 4 6 7 7 2 10 12 7 6 5 10 13 18 21 22 26
10 5 1 3 4 9 15 4 3 4 4 11 8 15 21 22 19 16 10 8 8 10 9 8 2 3 6 7 7 8 9 5 5 6 8 12 14 17 19 21 22 24 28 34
6 5 4 1 0 3 1 8 11 6 2 12 15 13 17 18 5 4 5 5 6 9 9 7 4 2 2 1 4 6 7 9 11 13 11 10 12 17 20 22 24 25 24 26
3 1 5 3 4 6 7 12 4 2 3 4 6 9 7 3 3 8 6 4 3 6 10 12 11 6 4 1 5 7 9 11 13 14 18 20 19 19 17 19 21 22 23 24
6 6 4 4 3 6 12 7 4 3 4 10 12 17 14 13 12 11 4 7 6 5 2 2 7 4 9 11 11 11 9 9 13 17 22 24 23 27 21 18 18 20 19 19
3 4 4 6 4 7 3 4 3 2 3 10 12 12 11 14 12 8 6 4 4 1 6 11 4 10 1 3 4 6 8 12 15 16 18 21 18 18 15 17 18 16 18 19
4 7 3 4 1 8 11 6 9 6 7 8 11 9 11 10 9 6 7 8 7 11 7 4 1 4 4 7 9 10 13 15 19 19 17 15 15 14 13 13 14 14 17 15
4 5 5 4 1 6 11 11 9 7 5 5 3 6 8 5 4 1 2 4 5 3 3 3 4 4 7 13 18 17 15 11 11 12 13 14 14 13 14 12 12 13 14 17
7 2 2 2 3 4 2 8 9 8 7 5 5 6 6 7 7 7 7 7 7 5 4 2 4 9 13 10 11 10 11 11 11 14 18 17 20 12 13 16 12 11 14 13
Wind_Direction
220 139 224 230 60 5 326 343 338 83 141 117 130 275 289 175 105 94 84 74 60 40 26 19 13 18 12 358 15 315 314 287 242 259 253 242 251 256 246 244 248 236 241 250
293 247 43 23 95 343 345 324 305 7 20 56 16 290 284 78 99 94 90 77 64 53 41 28 18 18 11 16 13 9 14 239 222 226 248 252 263 276 262 257 258 247 242 246
203 154 126 64 336 318 4 36 8 17 4 347 352 292 258 100 103 95 86 82 67 59 51 34 22 19 14 18 16 13 351 346 216 224 235 242 255 260 259 259 257 253 258 250
91 114 54 9 300 16 74 12 9 358 12 287 59 287 332 133 113 98 94 82 78 68 59 45 38 25 19 20 19 14 11 343 336 298 260 258 259 266 292 291 295 263 262 251
248 54 157 266 64 41 319 31 341 310 296 328 276 285 282 135 112 101 100 100 89 72 74 56 52 49 22 18 21 20 21 11 320 312 305 291 290 291 322 331 302 308 297 295
264 209 138 91 39 346 282 308 297 275 193 292 261 179 308 172 131 110 105 105 103 92 83 54 22 55 54 42 37 29 25 25 27 18 355 329 319 292 317 356 359 1 45 56
310 235 125 91 349 17 45 24 342 348 7 234 330 307 152 89 115 118 116 115 113 112 115 123 18 27 40 44 46 39 27 28 22 20 17 9 2 337 332 1 9 5 21 41
336 343 3 135 84 60 324 174 151 263 324 309 329 101 154 104 110 117 129 132 134 143 154 159 101 59 52 37 21 359 356 3 4 2 9 8 5 16 28 25 19 12 2 353
23 100 63 89 69 85 338 343 194 248 277 326 231 68 79 125 130 131 137 148 158 173 171 173 153 120 58 27 356 340 340 349 15 26 31 28 22 18 18 18 21 25 20 4
21 338 340 164 163 238 171 216 16 350 222 280 314 355 180 151 132 154 153 158 170 179 186 188 186 161 90 21 342 331 5 17 20 43 45 46 37 27 17 6 3 5 4 12
70 107 298 358 230 299 39 351 21 131 122 181 298 292 122 125 131 133 160 176 185 198 204 209 202 164 178 229 306 247 262 61 70 64 58 49 40 28 20 13 6 2 359 354
55 108 313 276 288 357 74 38 108 122 287 325 166 268 145 157 167 183 220 234 205 210 202 213 210 192 206 201 315 291 183 208 338 18 3 3 11 5 359 358 356 351 348 355
339 4 323 306 19 46 74 320 327 203 133 225 163 261 248 124 79 6 320 88 180 200 203 211 202 202 193 227 259 167 185 254 315 1 15 6 5 356 353 351 351 350 349 349
99 130 170 217 268 305 317 309 248 222 194 230 225 256 291 258 41 271 266 163 150 204 216 212 209 197 207 226 231 182 172 186 281 355 351 356 353 353 349 355 352 354 355 355
114 182 254 277 303 306 300 287 287 277 258 251 252 270 273 259 223 224 104 82 56 47 34 224 212 197 194 184 229 235 223 247 285 302 327 333 340 334 334 341 348 348 347 347
166 207 223 276 306 303 291 295 284 258 286 316 327 329 281 338 79 64 57 55 74 68 46 117 170 180 184 213 204 232 224 258 245 289 308 324 315 314 315 330 337 336 337 333
150 164 53 260 308 315 307 258 322 72 44 21 340 272 338 46 57 52 62 58 53 46 50 94 119 171 221 229 223 221 231 258 262 293 300 314 310 302 301 324 327 321 319 317
190 92 175 254 315 264 243 334 32 314 72 15 359 35 42 77 75 65 59 68 64 69 83 74 81 90 148 144 173 168 206 197 286 320 316 322 336 321 314 317 313 310 309 317
188 170 201 167 216 267 302 26 68 86 42 35 39 35 29 20 63 59 49 45 90 105 104 98 83 160 168 158 178 223 238 255 293 330 341 334 322 312 311 310 305 306 310 312
101 115 132 271 126 257 301 44 23 67 146 32 32 41 34 26 32 324 30 42 87 103 89 73 55 8 215 216 287 309 285 295 291 292 302 309 324 316 307 304 302 305 310 307
143 142 181 211 213 271 355 3 124 318 213 22 15 354 41 34 342 358 350 303 241 189 141 110 99 51 65 341 292 290 287 289 303 304 297 297 296 305 319 315 310 308 306 308
171 155 211 196 199 261 18 50 52 170 344 348 39 31 21 8 348 324 358 123 150 167 162 302 290 271 351 334 304 298 312 317 313 310 307 304 304 296 298 304 307 310 311 308
65 133 189 164 212 183 187 222 220 323 331 33 17 4 0 15 29 40 81 87 105 104 327 317 347 324 60 249 270 281 300 296 296 301 307 311 309 321 317 308 312 310 313 315
358 54 93 69 5 35 57 71 56 48 40 11 4 27 12 17 12 46 93 96 48 353 353 52 315 303 350 348 336 329 320 314 313 313 314 320 329 337 338 322 316 315 314 310
254 126 202 219 259 51 30 30 38 37 5 331 317 14 19 353 5 9 128 350 54 113 266 356 11 336 312 305 316 325 331 332 335 324 333 336 331 339 340 336 341 331 320 316
299 294 126 193 77 128 358 332 326 324 340 69 34 2 35 30 22 35 81 67 68 68 54 10 325 336 337 11 8 348 326 323 328 338 335 333 327 317 322 324 325 324 331 324